Retour au catalogue

STARLINK-1338

ActifCommunicationsVLEO
NORAD 45532·PAYLOAD·🇺🇸 United States

Lancé Apr 22, 2020 depuis Cape Canaveral Space Force Station

Loading…

Prochains Passages (prochaines 24 heures)

TLE

FraisSource: CelesTrak SupGP

Époque: Sep 14, 2026, 22:00 UTC

1 45532C 20025B   26257.91715278  .00148430  00000+0  57803-3 0  2572
2 45532  53.0357 228.9733 0004725  44.8818 102.9098 15.86279424    17

Suivez STARLINK-1338 en temps réel avec AllMySat

Download on the App Store